Location: Newark
(33.7579°N, 132.8129°E)
Time: 16:49:56
(UTC+00:00)

Hubble Space Telescope - Pass Details

Date: 18 November 2019
Orbit: 536 x 540 km, 28.5° (Epoch: 08 December)

Event Time Altitude Azimuth Distance (km) Brightness Sun altitude
Rises 08:38:08 0° 209° (SSW) 2,662 5.1 -7.4°
Reaches altitude 10° 08:41:51 10° 175° (S) 1,776 3.6 -8.1°
Maximum altitude 08:43:11 11° 156° (SSE) 1,691 3.2 -8.4°
Drops below altitude 10° 08:44:32 10° 137° (SE) 1,779 3.2 -8.7°
Enters shadow 08:46:38 - 114° (ESE) 2,200 3.4 -9.1°
